DW0499 Weather Reports


time (UTC)temp
C
wind
direction
speed
KPH
gust
KPH
rain 1hr
cm
rain 24hr
cm
rain mn
cm
humidity
%
barometer
mb
20260505130110 10 360 16.1 25.7 0.03 0.64 0.48 19 1010.7
20260505124602 10 360 16.1 30.6 0.03 0.64 0.48 19 1010.6
20260505123105 10 360 17.7 33.8 0.00 0.61 0.46 19 1010.6
20260505121553 10 360 19.3 30.6 0.00 0.58 0.46 19 1010.7
20260505120114 11 360 17.7 29.0 0.00 0.58 0.46 20 1010.7
20260505114556 12 360 14.5 24.1 0.00 0.58 0.46 21 1010.7
20260505113104 12 360 9.7 17.7 0.00 0.58 0.46 20 1010.7
20260505111555 -17 360 8.0 22.5 0.00 0.58 0.46 1010.8
20260505110111 -17 360 8.0 17.7 0.00 0.58 0.46 1010.5
20260505101603 -17 0 0.0 0.0 0.03 0.58 0.46 1010.4
20260505100059 -17 0 0.0 0.0 0.03 0.58 0.46 1010.3
20260505094559 -17 0 0.0 0.0 0.00 0.56 0.43 1010.4
20260505093108 -17 0 0.0 0.0 0.00 0.56 0.41 1010.4
20260505091602 -17 0 0.0 1.6 0.00 0.56 0.41 1010.3
20260505090100 -17 360 0.0 3.2 0.00 0.56 0.41 1010.2
20260505084555 -17 0 0.0 0.0 0.00 0.56 0.41 1010.3
20260505083059 -17 0 0.0 0.0 0.00 0.56 0.41 1010.3
20260505081623 -17 0 0.0 0.0 0.00 0.56 0.41 1010.2
20260505080109 -17 0 0.0 0.0 0.00 0.56 0.41 1010.2
20260505074558 -17 0 0.0 1.6 0.00 0.56 0.41 1010.3
20260505073059 -17 0 0.0 1.6 0.03 0.56 0.41 1010.3
20260505071601 -17 0 0.0 0.0 0.03 0.56 0.41 1010.6
20260505070111 -17 0 0.0 0.0 0.08 0.56 0.41 1010.7
20260505064600 -17 0 0.0 0.0 0.08 0.53 0.38 1010.9
20260505063057 -17 0 0.0 0.0 0.08 0.51 0.36 1011.3
20260505061600 -17 0 0.0 0.0 0.15 0.51 0.36 1011.4
20260505060058 -17 0 0.0 0.0 0.20 0.46 0.33 1011.6
20260505054559 -17 0 0.0 0.0 0.23 0.46 0.30 1011.6
20260505053103 -17 0 0.0 0.0 0.23 0.41 0.28 1011.7
20260505051557 -17 0 0.0 0.0 0.18 0.36 0.20 1011.7
20260505041555 -17 0 0.0 0.0 0.00 0.15 0.00 1011.8
20260505040106 -17 0 0.0 3.2 0.00 0.15 0.00 1011.9
20260505034555 -17 360 1.6 6.4 0.00 0.15 0.00 1011.9
20260505033055 -17 0 0.0 0.0 0.00 0.15 0.00 1011.9
20260505031558 -17 0 0.0 0.0 0.00 0.15 0.00 1011.9
20260505030105 -17 0 0.0 0.0 0.00 0.15 0.00 1011.9
20260505024555 -17 0 0.0 1.6 0.00 0.15 0.00 1012.0
20260505023102 -17 0 0.0 1.6 0.00 0.15 0.00 1012.1
20260505021557 -17 360 0.0 4.8 0.00 0.15 0.00 1012.2
20260505020057 -17 360 0.0 3.2 0.00 0.13 0.00 1012.4
20260505014558 -17 360 4.8 8.0 0.00 0.13 0.00 1012.4
20260505013055 -17 0 0.0 0.0 0.00 0.13 0.00 1012.3
20260505011556 -17 0 0.0 3.2 0.00 0.13 0.00 1012.2
20260505004555 -17 360 3.2 6.4 0.00 0.13 0.00 1012.4
20260505003104 -17 360 1.6 4.8 0.00 0.13 0.00 1012.8
20260505001558 8 0 0.0 3.2 0.00 0.13 0.00 23 1013.0
20260505000112 8 0 0.0 3.2 0.00 0.13 0.00 23 1013.1
20260504234557 8 0 0.0 1.6 0.00 0.13 0.00 23 1013.2
20260504233105 8 0 0.0 0.0 0.00 0.13 0.00 23 1013.3
20260504231558 8 0 0.0 0.0 0.00 0.13 0.00 23 1013.4
20260504230059 8 0 0.0 0.0 0.00 0.13 0.00 23 1013.5
20260504224601 8 0 0.0 0.0 0.00 0.13 0.00 23 1013.7
20260504223058 8 0 0.0 1.6 0.00 0.13 0.00 23 1013.8
20260504221556 8 0 0.0 0.0 0.00 0.13 0.00 23 1013.8
20260504220118 8 0 0.0 0.0 0.00 0.13 0.00 23 1014.0
20260504214559 8 0 1.6 4.8 0.00 0.13 0.13 22 1013.8
20260504213100 8 360 1.6 4.8 0.00 0.13 0.13 22 1014.1
20260504211557 7 360 1.6 6.4 0.00 0.13 0.13 22 1014.2
20260504210058 7 360 1.6 4.8 0.00 0.13 0.13 21 1014.1
20260504204559 8 360 6.4 9.7 0.00 0.13 0.13 21 1014.3
20260504203055 8 360 6.4 8.0 0.00 0.13 0.13 21 1014.4
20260504201557 8 360 0.0 3.2 0.00 0.13 0.13 21 1014.4
20260504200101 8 3.2 6.4 0.00 0.13 0.13 21 1014.4
20260504194556 8 360 3.2 6.4 0.00 0.13 0.13 20 1014.7
20260504193100 9 360 3.2 6.4 0.00 0.13 0.13 20 1014.6
20260504191559 9 360 4.8 6.4 0.00 0.13 0.13 20 1014.5
20260504190110 10 360 0.0 3.2 0.00 0.13 0.13 20 1014.5
20260504184613 10 0 0.0 3.2 0.00 0.13 0.13 20 1014.6
20260504183059 10 0 0.0 1.6 0.00 0.13 0.13 20 1014.7
20260504181600 10 0 0.0 1.6 0.00 0.13 0.13 19 1014.7
20260504180057 10 0 0.0 0.0 0.00 0.13 0.13 19 1014.8
20260504174559 10 0 0.0 1.6 0.00 0.13 0.13 19 1014.9
20260504173103 10 0 0.0 1.6 0.00 0.13 0.13 19 1014.9
20260504171556 10 360 0.0 3.2 0.00 0.13 0.13 19 1015.0
20260504170105 10 0 1.6 6.4 0.00 0.13 0.13 19 1015.3